| time (UTC) | temp C | wind direction | speed KPH | gust KPH | rain 1hr cm | rain 24hr cm | rain mn cm | humidity % | barometer mb |
| 20260503202104 | 16 | 244 | 6.4 | 16.1 | 0.00 | 0.00 | 0.00 | 45 | 1010.6 |
| 20260503201604 | 16 | 266 | 17.7 | 35.4 | 0.00 | 0.00 | 0.00 | 43 | 1010.8 |
| 20260503201104 | 16 | 276 | 12.9 | 32.2 | 0.00 | 0.00 | 0.00 | 44 | 1010.9 |
| 20260503200605 | 16 | 231 | 8.0 | 19.3 | 0.00 | 0.00 | 0.00 | 44 | 1010.9 |
| 20260503200105 | 16 | 261 | 14.5 | 32.2 | 0.00 | 0.00 | 0.00 | 43 | 1010.9 |
| 20260503195604 | 16 | 270 | 11.3 | 25.7 | 0.00 | 0.00 | 0.00 | 43 | 1011.0 |
| 20260503195104 | 16 | 285 | 8.0 | 25.7 | 0.00 | 0.00 | 0.00 | 44 | 1011.0 |
| 20260503194603 | 16 | 264 | 9.7 | 22.5 | 0.00 | 0.00 | 0.00 | 43 | 1011.2 |
| 20260503194104 | 16 | 217 | 9.7 | 19.3 | 0.00 | 0.00 | 0.00 | 43 | 1011.1 |
| 20260503193104 | 16 | 238 | 19.3 | 35.4 | 0.00 | 0.00 | 0.00 | 42 | 1011.3 |
| 20260503192604 | 16 | 263 | 14.5 | 27.4 | 0.00 | 0.00 | 0.00 | 42 | 1011.4 |
| 20260503191604 | 16 | 194 | 8.0 | 20.9 | 0.00 | 0.00 | 0.00 | 44 | 1011.5 |
| 20260503191103 | 16 | 170 | 8.0 | 22.5 | 0.00 | 0.00 | 0.00 | 45 | 1011.5 |
| 20260503190604 | 16 | 281 | 14.5 | 29.0 | 0.00 | 0.00 | 0.00 | 44 | 1011.6 |
| 20260503185604 | 16 | 255 | 16.1 | 32.2 | 0.00 | 0.00 | 0.00 | 44 | 1011.8 |
| 20260503184604 | 16 | 274 | 14.5 | 29.0 | 0.00 | 0.00 | 0.00 | 44 | 1011.8 |
| 20260503184104 | 16 | 200 | 16.1 | 29.0 | 0.00 | 0.00 | 0.00 | 42 | 1011.9 |
| 20260503183604 | 16 | 163 | 11.3 | 27.4 | 0.00 | 0.00 | 0.00 | 44 | 1011.9 |
| 20260503183103 | 16 | 272 | 11.3 | 32.2 | 0.00 | 0.00 | 0.00 | 44 | 1012.1 |
| 20260503182605 | 16 | 267 | 16.1 | 32.2 | 0.00 | 0.00 | 0.00 | 43 | 1012.2 |
| 20260503182103 | 15 | 277 | 19.3 | 29.0 | 0.00 | 0.00 | 0.00 | 44 | 1012.2 |
| 20260503181604 | 15 | 264 | 12.9 | 25.7 | 0.00 | 0.00 | 0.00 | 46 | 1012.2 |
| 20260503181104 | 15 | 276 | 14.5 | 32.2 | 0.00 | 0.00 | 0.00 | 44 | 1012.4 |
| 20260503180604 | 15 | 248 | 11.3 | 20.9 | 0.00 | 0.00 | 0.00 | 44 | 1012.5 |
| 20260503180106 | 15 | 269 | 19.3 | 27.4 | 0.00 | 0.00 | 0.00 | 43 | 1012.5 |
| 20260503175604 | 15 | 279 | 17.7 | 27.4 | 0.00 | 0.00 | 0.00 | 44 | 1012.6 |
| 20260503175103 | 15 | 278 | 16.1 | 32.2 | 0.00 | 0.00 | 0.00 | 44 | 1012.7 |
| 20260503174104 | 15 | 257 | 12.9 | 33.8 | 0.00 | 0.00 | 0.00 | 44 | 1012.8 |
| 20260503173604 | 15 | 224 | 11.3 | 32.2 | 0.00 | 0.00 | 0.00 | 44 | 1012.9 |
| 20260503172604 | 15 | 258 | 11.3 | 33.8 | 0.00 | 0.00 | 0.00 | 43 | 1013.0 |
| 20260503171604 | 15 | 269 | 16.1 | 32.2 | 0.00 | 0.00 | 0.00 | 46 | 1013.2 |
| 20260503171103 | 14 | 263 | 8.0 | 20.9 | 0.00 | 0.00 | 0.00 | 46 | 1013.3 |
| 20260503170603 | 15 | 257 | 11.3 | 25.7 | 0.00 | 0.00 | 0.00 | 45 | 1013.4 |
| 20260503170106 | 15 | 239 | 9.7 | 24.1 | 0.00 | 0.00 | 0.00 | 46 | 1013.4 |
| 20260503160106 | 12 | 271 | 8.0 | 20.9 | 0.00 | 0.00 | 0.00 | 51 | 1014.1 |
| 20260503150604 | 12 | 259 | 14.5 | 24.1 | 0.00 | 0.00 | 0.00 | 50 | 1014.4 |
| 20260503140105 | 9 | 263 | 9.7 | 24.1 | 0.00 | 0.00 | 0.00 | 60 | 1014.5 |
| 20260503131104 | 7 | 278 | 8.0 | 14.5 | 0.00 | 0.00 | 0.00 | 66 | 1014.9 |
| 20260503130604 | 7 | 273 | 4.8 | 16.1 | 0.00 | 0.00 | 0.00 | 66 | 1014.8 |
| 20260503130106 | 6 | 267 | 8.0 | 20.9 | 0.00 | 0.00 | 0.00 | 65 | 1014.9 |
| 20260503120105 | 4 | 208 | 4.8 | 14.5 | 0.00 | 0.00 | 0.00 | 69 | 1014.7 |
| 20260503110603 | 3 | 190 | 3.2 | 8.0 | 0.00 | 0.00 | 0.00 | 68 | 1014.6 |
| 20260503110106 | 3 | 189 | 3.2 | 8.0 | 0.00 | 0.00 | 0.00 | 68 | 1014.6 |
| 20260503100106 | 3 | 170 | 3.2 | 4.8 | 0.00 | 0.00 | 0.00 | 68 | 1014.8 |
| 20260503090105 | 2 | 262 | 3.2 | 4.8 | 0.00 | 0.00 | 0.00 | 70 | 1015.1 |
| 20260503081604 | 2 | 230 | 0.0 | 3.2 | 0.00 | 0.00 | 0.00 | 69 | 1015.3 |
| 20260503080604 | 3 | 203 | 0.0 | 4.8 | 0.00 | 0.00 | 0.00 | 68 | 1015.4 |
| 20260503080105 | 3 | 229 | 1.6 | 4.8 | 0.00 | 0.00 | 0.00 | 68 | 1015.4 |
| 20260503072604 | 3 | 224 | 1.6 | 4.8 | 0.00 | 0.00 | 0.00 | 68 | 1015.5 |
| 20260503072104 | 3 | 270 | 0.0 | 3.2 | 0.00 | 0.00 | 0.00 | 68 | 1015.5 |
| 20260503071105 | 3 | 252 | 1.6 | 3.2 | 0.00 | 0.00 | 0.00 | 69 | 1015.4 |
| 20260503070604 | 3 | 265 | 1.6 | 3.2 | 0.00 | 0.00 | 0.00 | 69 | 1015.5 |
| 20260503070106 | 3 | 265 | 0.0 | 3.2 | 0.00 | 0.00 | 0.00 | 69 | 1015.5 |
| 20260503060106 | 2 | 296 | 1.6 | 3.2 | 0.00 | 0.00 | 0.00 | 70 | 1015.9 |
| 20260503055103 | 3 | 296 | 1.6 | 4.8 | 0.00 | 0.00 | 0.00 | 70 | 1016.0 |
| 20260503054604 | 3 | 296 | 0.0 | 1.6 | 0.00 | 0.00 | 0.00 | 70 | 1016.1 |
| 20260503054105 | 3 | 296 | 1.6 | 3.2 | 0.00 | 0.00 | 0.00 | 70 | 1016.1 |
| 20260503053604 | 3 | 296 | 1.6 | 3.2 | 0.00 | 0.00 | 0.00 | 70 | 1016.1 |
| 20260503053104 | 3 | 296 | 0.0 | 1.6 | 0.00 | 0.00 | 0.00 | 70 | 1016.1 |
| 20260503052604 | 3 | 296 | 0.0 | 1.6 | 0.00 | 0.00 | 0.00 | 70 | 1016.1 |
| 20260503052104 | 3 | 296 | 0.0 | 1.6 | 0.00 | 0.00 | 0.00 | 70 | 1016.1 |
| 20260503051604 | 3 | 296 | 1.6 | 3.2 | 0.00 | 0.00 | 0.00 | 70 | 1016.2 |
| 20260503051104 | 3 | 296 | 1.6 | 3.2 | 0.00 | 0.00 | 0.00 | 69 | 1016.2 |
| 20260503050604 | 3 | 296 | 0.0 | 1.6 | 0.00 | 0.00 | 0.00 | 69 | 1016.3 |
| 20260503045604 | 3 | 296 | 0.0 | 3.2 | 0.00 | 0.00 | 0.00 | 69 | 1016.4 |
| 20260503045104 | 3 | 296 | 1.6 | 3.2 | 0.00 | 0.00 | 0.00 | 68 | 1016.4 |
| 20260503044604 | 3 | 296 | 1.6 | 3.2 | 0.00 | 0.00 | 0.00 | 68 | 1016.3 |
| 20260503044104 | 3 | 296 | 1.6 | 4.8 | 0.00 | 0.00 | 0.00 | 68 | 1016.4 |
| 20260503043604 | 3 | 296 | 1.6 | 3.2 | 0.00 | 0.00 | 0.00 | 68 | 1016.4 |
| 20260503043104 | 3 | 296 | 0.0 | 3.2 | 0.00 | 0.00 | 0.00 | 68 | 1016.3 |
| 20260503042605 | 3 | 296 | 0.0 | 3.2 | 0.00 | 0.00 | 0.00 | 68 | 1016.3 |
| 20260503042104 | 3 | 296 | 1.6 | 3.2 | 0.00 | 0.00 | 0.00 | 68 | 1016.4 |
| 20260503041604 | 3 | 296 | 0.0 | 1.6 | 0.00 | 0.00 | 0.00 | 68 | 1016.4 |
| 20260503041104 | 3 | 296 | 1.6 | 3.2 | 0.00 | 0.00 | 0.00 | 69 | 1016.5 |
| 20260503035104 | 4 | 296 | 0.0 | 1.6 | 0.00 | 0.00 | 0.00 | 68 | 1016.5 |
| 20260503034604 | 4 | 296 | 0.0 | 0.0 | 0.00 | 0.00 | 0.00 | 68 | 1016.6 |
| 20260503034103 | 4 | 296 | 0.0 | 1.6 | 0.00 | 0.00 | 0.00 | 68 | 1016.5 |
| 20260503033604 | 5 | 296 | 0.0 | 0.0 | 0.00 | 0.00 | 0.00 | 67 | 1016.5 |
| 20260503033104 | 5 | 296 | 0.0 | 1.6 | 0.00 | 0.00 | 0.00 | 67 | 1016.6 |
| 20260503032604 | 5 | 296 | 1.6 | 3.2 | 0.00 | 0.00 | 0.00 | 67 | 1016.6 |
| 20260503032104 | 5 | 296 | 0.0 | 3.2 | 0.00 | 0.00 | 0.00 | 67 | 1016.6 |
| 20260503030604 | 5 | 296 | 0.0 | 3.2 | 0.00 | 0.00 | 0.00 | 66 | 1016.6 |
| 20260503025603 | 5 | 296 | 0.0 | 1.6 | 0.00 | 0.00 | 0.00 | 66 | 1016.6 |
| 20260503025104 | 5 | 296 | 0.0 | 1.6 | 0.00 | 0.00 | 0.00 | 66 | 1016.7 |
| 20260503024104 | 5 | 296 | 0.0 | 1.6 | 0.00 | 0.00 | 0.00 | 64 | 1016.8 |
| 20260503023604 | 5 | 296 | 0.0 | 0.0 | 0.00 | 0.00 | 0.00 | 63 | 1016.7 |
| 20260503023105 | 5 | 296 | 0.0 | 1.6 | 0.00 | 0.00 | 0.00 | 63 | 1016.7 |
| 20260503022104 | 6 | 296 | 0.0 | 0.0 | 0.00 | 0.00 | 0.00 | 61 | 1016.7 |
| 20260503021604 | 6 | 296 | 0.0 | 0.0 | 0.00 | 0.00 | 0.00 | 60 | 1016.6 |
| 20260503021104 | 6 | 296 | 0.0 | 1.6 | 0.00 | 0.00 | 0.00 | 59 | 1016.5 |
| 20260503020604 | 6 | 296 | 0.0 | 0.0 | 0.00 | 0.00 | 0.00 | 58 | 1016.5 |
| 20260503020105 | 6 | 296 | 0.0 | 0.0 | 0.00 | 0.00 | 0.00 | 58 | 1016.4 |
| 20260503015604 | 6 | 296 | 0.0 | 1.6 | 0.00 | 0.00 | 0.00 | 57 | 1016.4 |
| 20260503015104 | 7 | 296 | 0.0 | 1.6 | 0.00 | 0.00 | 0.00 | 57 | 1016.4 |
| 20260503014604 | 7 | 296 | 0.0 | 3.2 | 0.00 | 0.00 | 0.00 | 56 | 1016.4 |
| 20260503014104 | 7 | 314 | 0.0 | 3.2 | 0.00 | 0.00 | 0.00 | 56 | 1016.3 |
| 20260503013604 | 7 | 314 | 0.0 | 3.2 | 0.00 | 0.00 | 0.00 | 55 | 1016.3 |
| 20260503012604 | 7 | 315 | 0.0 | 1.6 | 0.00 | 0.00 | 0.00 | 54 | 1016.2 |
| 20260503012104 | 7 | 315 | 0.0 | 1.6 | 0.00 | 0.00 | 0.00 | 55 | 1016.2 |
| 20260503011105 | 7 | 315 | 0.0 | 1.6 | 0.00 | 0.00 | 0.00 | 54 | 1016.2 |
| 20260503010604 | 7 | 315 | 0.0 | 1.6 | 0.00 | 0.00 | 0.00 | 53 | 1016.2 |
| 20260503010105 | 7 | 315 | 0.0 | 1.6 | 0.00 | 0.00 | 0.00 | 52 | 1016.2 |
| 20260503005604 | 7 | 315 | 0.0 | 1.6 | 0.00 | 0.00 | 0.00 | 52 | 1016.1 |
| 20260503005105 | 7 | 315 | 0.0 | 1.6 | 0.00 | 0.00 | 0.00 | 51 | 1016.1 |
| 20260503004604 | 8 | 315 | 0.0 | 1.6 | 0.00 | 0.00 | 0.00 | 50 | 1016.1 |
| 20260503004104 | 8 | 315 | 0.0 | 1.6 | 0.00 | 0.00 | 0.00 | 50 | 1016.0 |
| 20260503003104 | 8 | 315 | 0.0 | 3.2 | 0.00 | 0.00 | 0.00 | 50 | 1015.9 |
| 20260503002604 | 8 | 315 | 0.0 | 3.2 | 0.00 | 0.00 | 0.00 | 50 | 1015.9 |
| 20260503001604 | 8 | 315 | 1.6 | 4.8 | 0.00 | 0.00 | 0.00 | 49 | 1015.9 |
| 20260503001105 | 8 | 315 | 3.2 | 4.8 | 0.00 | 0.00 | 0.00 | 49 | 1015.9 |
| 20260503000604 | 8 | 294 | 4.8 | 8.0 | 0.00 | 0.00 | 0.00 | 49 | 1015.9 |
| 20260503000105 | 8 | 324 | 3.2 | 4.8 | 0.00 | 0.00 | 0.00 | 49 | 1015.9 |
| 20260502235604 | 8 | 306 | 3.2 | 4.8 | 0.00 | 0.00 | 0.00 | 49 | 1015.9 |
| 20260502234604 | 8 | 308 | 3.2 | 4.8 | 0.00 | 0.00 | 0.00 | 49 | 1016.0 |
| 20260502234104 | 8 | 288 | 4.8 | 12.9 | 0.00 | 0.00 | 0.00 | 48 | 1015.9 |
| 20260502233604 | 8 | 312 | 3.2 | 8.0 | 0.00 | 0.00 | 0.00 | 48 | 1015.9 |
| 20260502233104 | 8 | 257 | 3.2 | 9.7 | 0.00 | 0.00 | 0.00 | 48 | 1016.0 |
| 20260502231604 | 8 | 334 | 4.8 | 9.7 | 0.00 | 0.00 | 0.00 | 48 | 1016.1 |
| 20260502231104 | 8 | 288 | 3.2 | 11.3 | 0.00 | 0.00 | 0.00 | 47 | 1016.1 |
| 20260502230604 | 8 | 297 | 4.8 | 14.5 | 0.00 | 0.00 | 0.00 | 47 | 1016.1 |
| 20260502230105 | 8 | 311 | 4.8 | 11.3 | 0.00 | 0.00 | 0.00 | 46 | 1016.2 |
| 20260502225605 | 8 | 331 | 6.4 | 14.5 | 0.00 | 0.00 | 0.00 | 46 | 1016.2 |
| 20260502225104 | 8 | 312 | 6.4 | 14.5 | 0.00 | 0.00 | 0.00 | 47 | 1016.2 |
| 20260502224604 | 8 | 342 | 4.8 | 9.7 | 0.00 | 0.00 | 0.00 | 48 | 1016.2 |
| 20260502224104 | 8 | 264 | 8.0 | 14.5 | 0.00 | 0.00 | 0.00 | 48 | 1016.2 |
| 20260502223604 | 8 | 340 | 4.8 | 8.0 | 0.00 | 0.00 | 0.00 | 46 | 1016.3 |
| 20260502223104 | 8 | 325 | 4.8 | 9.7 | 0.00 | 0.00 | 0.00 | 46 | 1016.3 |
| 20260502222604 | 8 | 316 | 4.8 | 12.9 | 0.00 | 0.00 | 0.00 | 45 | 1016.2 |
| 20260502222104 | 8 | 330 | 4.8 | 14.5 | 0.00 | 0.00 | 0.00 | 45 | 1016.4 |
| 20260502221604 | 8 | 337 | 3.2 | 8.0 | 0.00 | 0.00 | 0.00 | 45 | 1016.4 |
| 20260502221105 | 8 | 343 | 4.8 | 12.9 | 0.00 | 0.00 | 0.00 | 45 | 1016.4 |
| 20260502220604 | 8 | 317 | 8.0 | 14.5 | 0.00 | 0.00 | 0.00 | 46 | 1016.4 |
| 20260502215604 | 8 | 325 | 6.4 | 14.5 | 0.00 | 0.00 | 0.00 | 46 | 1016.4 |
| 20260502215104 | 8 | 9 | 4.8 | 12.9 | 0.00 | 0.00 | 0.00 | 45 | 1016.4 |
| 20260502214604 | 8 | 341 | 9.7 | 19.3 | 0.00 | 0.00 | 0.00 | 44 | 1016.4 |
| 20260502214105 | 8 | 325 | 6.4 | 12.9 | 0.00 | 0.00 | 0.00 | 46 | 1016.4 |
| 20260502213605 | 8 | 316 | 6.4 | 11.3 | 0.00 | 0.00 | 0.00 | 45 | 1016.4 |
| 20260502213104 | 8 | 306 | 8.0 | 14.5 | 0.00 | 0.00 | 0.00 | 46 | 1016.4 |
| 20260502212104 | 8 | 333 | 6.4 | 16.1 | 0.00 | 0.00 | 0.00 | 46 | 1016.4 |
| 20260502211605 | 8 | 322 | 8.0 | 14.5 | 0.00 | 0.00 | 0.00 | 46 | 1016.5 |
| 20260502211104 | 8 | 287 | 4.8 | 16.1 | 0.00 | 0.00 | 0.00 | 46 | 1016.6 |
| 20260502210603 | 8 | 352 | 9.7 | 16.1 | 0.00 | 0.00 | 0.00 | 45 | 1016.5 |
| 20260502205104 | 8 | 330 | 4.8 | 14.5 | 0.00 | 0.00 | 0.00 | 46 | 1016.6 |
| 20260502204604 | 8 | 278 | 4.8 | 14.5 | 0.00 | 0.00 | 0.00 | 47 | 1016.6 |
| 20260502204104 | 8 | 315 | 8.0 | 19.3 | 0.00 | 0.00 | 0.00 | 45 | 1016.7 |
| 20260502203604 | 8 | 341 | 8.0 | 19.3 | 0.00 | 0.00 | 0.00 | 46 | 1016.7 |
| 20260502203104 | 8 | 326 | 11.3 | 22.5 | 0.00 | 0.00 | 0.00 | 46 | 1016.8 |